RH
15 13 23 18 19 14 13 9 8 8 8 10 11 13 14 13 16 31 50 57 57 69 82 71 66 80 95 90 86 87 91 90 83 72 73 73 77 73 74 80 84 89 89 96 96 95 97 98 80
20 17 17 16 22 16 10 8 9 8 9 10 10 12 12 16 23 21 45 60 64 60 73 86 66 75 85 97 95 90 86 88 90 76 77 73 74 71 80 86 89 89 91 98 99 97 100 87 77
19 20 17 18 17 16 11 8 8 8 9 10 10 9 14 21 28 32 55 62 68 68 76 84 75 71 87 96 84 98 96 87 89 82 80 74 71 76 85 86 88 89 92 99 98 100 89 74 69
19 13 13 16 13 9 9 8 8 8 8 10 12 14 19 23 24 38 47 54 60 68 76 82 83 67 71 78 70 54 60 91 83 83 81 78 77 83 84 83 88 90 91 98 98 99 75 73 68
14 12 16 16 12 9 7 8 8 8 8 9 12 15 16 34 36 43 50 55 57 63 74 81 83 79 68 76 75 68 57 85 97 83 82 82 82 85 84 85 89 88 92 97 100 87 73 70 65
14 13 17 14 10 7 8 8 8 8 8 9 11 14 19 35 36 52 60 62 70 68 76 86 91 85 70 61 63 57 59 59 98 82 82 85 88 83 84 85 91 91 88 93 86 78 73 68 53
16 15 15 13 11 9 7 8 10 10 11 11 12 16 17 35 42 48 54 68 80 86 82 89 88 79 70 75 76 75 75 85 96 79 87 86 85 85 85 89 89 86 83 79 72 77 71 50 55
12 13 15 12 11 10 7 10 10 10 12 11 10 13 19 42 43 50 57 75 72 85 90 94 95 92 86 74 77 74 75 77 95 74 87 86 86 85 87 85 81 80 82 82 61 60 58 50 56
10 15 15 12 10 8 7 10 8 8 11 10 10 13 20 40 43 46 57 76 78 84 95 95 91 91 87 86 78 81 74 66 98 80 74 80 86 82 82 86 76 74 81 74 66 60 54 54 51
12 15 13 8 8 8 7 7 9 10 10 11 11 12 34 38 38 40 49 59 71 76 82 80 87 91 89 92 88 86 80 96 78 98 81 83 80 74 80 91 80 71 70 54 62 54 54 43 50
12 14 11 9 8 7 8 7 7 9 11 10 12 16 34 36 35 35 34 54 60 67 79 88 83 90 93 91 89 82 89 90 89 97 89 84 80 78 91 94 85 79 50 52 50 50 50 45 53
12 9 10 9 8 8 8 8 8 8 11 10 11 14 18 20 32 32 31 42 59 75 77 75 89 96 98 95 90 88 75 92 93 100 89 79 81 92 95 96 64 58 42 50 43 46 58 47 54
11 9 8 8 8 8 7 8 9 11 8 8 8 13 21 22 26 28 30 39 67 69 82 82 87 89 91 84 76 94 98 99 92 90 91 82 82 89 79 90 56 52 47 50 39 57 53 51 49
10 9 9 8 8 8 9 8 8 9 8 8 9 16 21 22 26 26 33 35 60 70 85 87 92 92 96 98 97 100 99 99 100 97 94 79 83 86 63 82 56 62 55 43 53 58 52 53 54
12 14 11 10 9 10 9 10 10 9 8 8 9 12 20 21 26 27 30 34 56 73 90 93 98 94 99 97 99 99 100 99 100 90 91 87 89 76 78 76 60 62 56 47 54 52 52 50 54
15 15 19 12 10 10 10 15 10 8 8 8 10 13 21 23 26 28 28 35 49 70 86 91 96 99 97 97 90 94 99 98 98 100 98 96 86 77 74 71 63 64 55 51 56 51 48 48 50
21 25 21 16 11 11 11 13 9 9 11 13 14 16 22 25 28 28 31 37 39 61 80 90 97 97 98 100 99 89 90 94 97 96 93 89 84 73 64 68 66 62 56 55 51 48 45 45 46
26 23 20 19 13 11 12 12 11 11 13 15 14 17 22 26 28 30 32 38 39 58 82 83 99 98 100 100 100 100 90 98 94 92 72 68 82 54 56 75 76 64 60 53 49 47 44 44 44
21 22 22 16 12 13 14 12 11 10 11 14 16 16 19 26 25 30 34 39 41 57 76 89 100 100 99 100 100 100 100 100 100 99 98 82 80 72 70 62 59 59 56 49 48 46 43 44 42
18 21 23 19 14 13 13 13 11 10 10 10 11 15 16 21 25 31 38 42 45 56 73 92 99 99 99 99 100 100 100 100 100 99 87 82 73 71 62 58 54 54 54 49 49 53 52 50 46
21 26 26 23 17 15 14 16 15 12 10 9 9 10 12 18 25 32 41 47 50 58 66 78 90 99 100 100 100 100 100 100 100 100 87 78 70 72 62 59 59 54 52 50 51 55 58 59 52
41 25 24 22 24 31 17 24 16 13 12 11 10 12 12 13 21 29 39 47 54 54 66 73 86 90 97 98 100 100 98 98 97 95 93 80 69 67 62 61 67 60 57 60 58 62 66 65 64
52 32 34 36 26 27 22 24 19 13 14 12 11 12 14 15 17 26 36 42 50 53 65 66 82 89 97 99 100 99 99 95 92 98 98 93 75 68 61 58 67 62 71 65 69 72 72 72 70
39 36 41 36 29 37 26 26 24 18 15 11 10 12 12 15 17 22 32 38 44 52 59 69 77 87 92 94 93 93 93 96 93 100 100 100 87 63 67 73 66 72 76 78 77 74 72 69 67
40 38 77 66 47 46 23 26 23 16 13 12 13 12 12 15 18 22 31 38 42 51 59 64 80 79 91 96 99 99 95 92 98 95 96 94 99 94 70 82 79 68 69 71 74 74 74 69 63
41 38 82 70 58 42 24 29 21 15 13 12 12 12 13 15 22 23 28 37 40 48 58 61 70 74 86 96 96 96 95 95 94 98 95 87 83 86 76 82 82 80 68 59 63 62 66 67 63
58 53 44 66 61 86 43 21 16 13 13 12 13 14 15 16 18 20 23 36 38 46 56 61 58 65 69 81 87 89 87 87 93 95 94 94 84 76 78 74 80 86 76 61 56 60 66 74 67
47 34 50 60 74 84 47 39 25 20 19 15 15 16 16 15 16 20 22 34 36 43 51 59 56 56 58 81 82 80 79 84 82 84 88 91 93 87 73 72 85 91 86 74 63 64 61 72 76
44 46 58 59 59 68 58 44 25 28 19 22 22 21 21 20 19 20 21 27 34 39 47 57 58 51 52 63 78 79 81 82 80 79 81 83 82 89 86 81 84 88 90 82 74 72 75 80 79
34 38 40 73 80 53 62 52 27 25 23 23 23 19 20 20 20 19 21 24 31 37 44 53 57 54 48 52 63 72 76 79 80 82 82 83 83 83 82 83 91 91 85 85 80 79 73 76 75
Wind_Speed
11 9 11 16 6 8 16 9 10 6 1 7 6 4 9 8 9 3 14 7 5 6 4 11 14 14 13 18 19 20 21 22 24 26 27 27 27 26 27 29 28 30 29 25 25 25 26 25 28
10 14 14 6 9 12 11 8 3 3 10 7 5 10 12 5 11 5 8 8 5 2 5 9 13 14 14 15 13 18 21 22 24 28 29 29 29 28 29 28 28 27 30 26 26 26 26 28 29
13 12 7 7 12 14 15 10 4 4 5 3 6 11 6 3 11 4 6 5 3 3 7 11 14 16 16 22 11 11 14 25 28 30 28 31 31 30 30 29 28 28 29 27 25 25 28 28 29
8 10 6 7 16 21 16 6 5 4 5 8 7 8 4 8 4 7 4 1 1 2 7 12 13 18 17 20 22 1 15 14 27 29 30 31 33 33 32 30 27 28 27 26 24 24 30 28 29
15 6 12 16 21 23 6 2 6 8 5 3 4 7 9 8 10 10 5 2 3 7 8 12 14 13 20 18 16 19 19 44 26 33 33 31 33 34 32 30 26 28 28 25 24 27 29 28 27
8 10 13 15 21 15 6 3 2 7 5 7 10 13 1 13 6 10 4 1 3 5 10 11 12 14 16 17 12 16 19 32 27 36 34 35 34 34 32 30 29 28 27 25 26 27 27 25 25
16 12 17 21 19 20 8 10 4 6 8 9 9 11 3 12 8 6 4 2 1 5 10 12 10 15 18 14 11 9 18 25 31 38 37 37 36 35 33 33 32 28 26 24 30 25 25 25 29
13 13 22 18 16 20 7 9 5 6 9 4 8 6 4 10 7 6 5 3 2 5 7 12 10 10 9 11 14 13 8 4 29 39 39 39 38 34 33 33 31 27 25 24 27 23 27 31 26
20 14 15 21 20 15 8 8 7 3 8 9 9 10 5 11 7 5 7 3 3 5 7 13 9 8 9 7 10 14 16 9 14 35 37 37 35 33 31 29 30 27 25 26 25 25 28 31 26
18 15 21 21 21 10 12 8 3 7 10 14 14 10 14 9 6 8 10 8 5 7 9 10 14 7 8 12 13 15 19 22 18 25 27 36 36 31 26 29 28 28 28 26 24 24 25 26 26
21 20 21 24 21 10 10 19 8 14 12 10 6 5 12 7 5 7 9 9 8 6 6 8 10 9 8 9 13 16 15 20 28 27 37 36 33 29 24 29 27 28 27 26 24 25 24 26 25
23 24 23 24 20 20 10 15 15 14 13 11 10 2 6 6 7 8 7 9 12 12 7 5 6 7 6 10 12 15 18 25 28 29 39 39 34 30 29 30 29 26 27 26 27 28 21 21 18
24 24 21 23 22 17 18 14 17 17 16 11 16 8 7 9 9 9 5 5 16 10 8 5 8 5 6 6 9 15 22 26 34 41 36 38 35 30 27 28 30 26 26 25 30 24 23 20 16
23 22 23 24 20 20 19 17 17 18 17 18 15 9 10 11 9 8 10 9 16 9 10 11 9 12 11 8 6 13 19 24 37 42 38 37 34 31 30 27 28 24 28 28 24 18 22 20 15
19 22 22 21 19 19 19 21 21 18 20 19 15 12 10 12 11 8 12 11 15 13 13 10 10 12 13 14 17 16 20 22 34 39 35 37 32 30 33 32 28 25 28 25 19 22 18 18 18
20 18 19 22 23 23 19 20 20 20 17 15 10 12 11 12 10 11 10 9 15 15 14 12 12 14 13 13 15 20 24 26 30 31 36 34 29 29 32 31 28 27 29 25 22 23 21 20 20
16 18 24 22 23 22 21 22 21 13 7 10 13 10 10 10 11 12 14 12 12 14 13 12 12 15 14 15 20 20 23 26 31 32 34 32 26 22 27 30 26 28 32 27 26 23 21 21 19
20 20 22 22 22 20 16 16 16 14 14 12 11 11 13 12 12 14 14 14 14 19 18 14 15 15 20 19 21 22 27 27 32 31 34 35 27 28 28 28 22 23 29 27 24 21 20 20 18
21 20 25 23 20 20 18 15 16 17 16 13 14 11 13 15 13 18 15 16 16 17 18 17 18 18 21 24 25 25 26 31 28 34 34 34 35 31 34 27 20 22 25 24 22 18 18 20 18
26 25 26 26 21 6 13 14 15 15 14 14 13 14 15 15 14 15 18 17 17 19 19 21 19 22 23 24 24 25 28 28 31 31 33 31 29 30 28 25 26 26 23 23 23 22 21 19 21
24 21 21 26 22 18 16 16 17 19 17 15 16 15 10 15 17 17 16 18 19 19 20 20 20 23 26 24 24 25 25 23 24 27 32 34 30 28 31 28 30 31 28 29 27 23 22 19 21
24 22 25 22 17 14 17 14 17 16 21 22 17 12 13 8 16 18 17 18 22 20 23 21 23 22 26 28 25 26 25 24 25 30 32 36 32 30 30 26 30 32 26 26 28 28 26 24 23
27 21 18 22 20 18 21 13 13 10 13 14 15 16 14 13 11 17 19 22 23 23 24 22 24 23 23 28 27 27 24 26 26 26 27 32 36 31 28 28 29 33 26 28 31 30 29 26 23
25 23 17 24 16 16 19 16 13 14 15 10 7 10 12 14 11 14 20 24 23 25 24 26 25 25 25 28 28 28 26 26 27 28 29 30 36 40 31 28 35 33 33 31 31 33 31 26 22
24 13 4 6 12 13 16 14 14 13 18 4 6 2 6 11 13 13 16 16 22 26 28 25 28 26 28 28 28 31 28 29 31 33 33 31 30 34 40 29 34 35 38 36 33 29 27 24 23
16 16 5 6 7 13 19 11 15 14 16 3 1 0 6 10 9 11 15 17 22 26 29 28 29 28 31 32 29 29 30 31 30 34 32 34 36 38 42 40 35 36 37 38 38 34 29 26 27
11 16 22 17 9 6 8 18 3 10 9 6 7 6 7 9 10 11 12 16 24 27 30 31 28 29 32 32 32 31 31 29 31 32 35 35 38 39 40 41 41 36 39 40 43 41 33 26 30
23 12 11 4 5 6 5 6 6 10 11 8 7 7 6 7 4 4 11 15 24 27 28 30 29 28 28 35 35 32 34 31 29 29 35 34 37 39 41 39 38 35 37 42 44 40 41 34 33
15 16 5 4 8 3 1 6 1 2 7 5 8 12 10 8 6 6 2 11 23 25 27 29 30 28 29 32 33 33 33 33 34 34 32 36 34 36 39 43 41 40 37 39 38 38 36 35 35
18 18 19 7 4 7 5 4 8 11 4 7 6 7 11 13 13 5 5 3 16 21 25 28 27 28 29 30 32 33 33 34 36 37 37 35 36 36 39 37 42 43 43 39 40 38 38 38 35
Wind_Direction
234 248 250 257 252 234 264 271 61 9 5 74 32 336 329 307 301 17 101 77 46 104 143 172 171 170 185 194 196 191 183 177 172 162 154 148 144 140 136 133 132 132 129 127 123 122 121 118 122
225 237 248 275 248 280 280 84 63 110 62 61 258 232 249 315 43 52 78 46 40 181 171 184 178 167 178 190 199 199 186 180 177 170 161 154 150 145 140 139 139 136 130 127 124 125 120 126 127
236 257 265 235 248 248 279 46 43 64 88 263 298 289 282 58 74 60 65 31 33 148 169 184 183 177 167 175 148 168 189 190 181 174 165 158 152 148 147 144 141 137 129 128 126 123 126 130 129
221 226 243 252 264 282 300 359 86 276 243 167 255 296 146 78 107 101 99 61 164 184 192 208 204 194 190 198 196 83 269 308 186 179 167 161 155 153 152 146 144 139 134 131 132 131 132 132 130
237 268 250 258 266 262 229 117 314 301 270 292 18 317 314 111 121 119 122 174 217 196 204 223 224 201 208 201 213 235 246 237 232 182 168 164 160 156 152 145 144 140 139 136 134 137 136 139 136
224 228 260 267 267 310 90 113 319 282 276 266 240 236 299 131 139 123 122 158 221 239 213 219 221 212 210 234 230 233 196 205 240 179 170 165 163 158 153 145 143 147 147 146 142 141 142 142 143
249 252 253 264 281 295 293 140 152 271 294 290 359 321 350 130 105 112 128 122 154 232 217 231 233 213 235 232 206 176 220 226 240 172 171 167 165 158 153 147 149 150 149 151 138 145 147 142 146
236 253 262 271 279 282 332 119 187 228 265 0 309 287 306 103 119 121 123 94 285 243 256 224 220 223 211 209 194 191 168 238 276 173 171 167 162 155 155 154 154 153 152 146 136 151 145 146 145
241 249 257 261 263 289 151 178 210 183 287 282 259 239 172 135 145 175 159 145 204 245 242 233 206 216 202 201 195 200 179 178 216 177 169 165 156 155 157 157 155 155 155 144 147 149 148 146 144
234 247 251 259 277 316 326 291 173 263 245 243 235 216 134 146 188 213 188 197 210 220 231 239 214 205 183 167 152 183 190 170 179 182 169 162 156 155 152 157 150 153 150 145 152 150 146 145 145
238 240 257 270 285 327 288 291 202 243 238 257 308 342 146 177 219 244 250 151 198 202 190 216 226 237 209 180 166 160 178 178 173 185 165 157 148 152 157 152 149 150 147 147 149 144 138 150 147
246 246 250 264 275 285 268 274 285 265 251 253 278 153 290 233 223 235 237 167 163 164 179 184 153 161 147 174 191 198 197 180 173 155 160 156 153 158 158 154 155 150 147 150 151 142 147 151 155
248 249 257 264 262 264 272 252 269 277 286 271 273 199 219 247 235 221 204 177 139 168 176 190 180 164 189 196 194 207 194 169 165 163 173 162 155 161 163 148 153 148 152 157 153 152 158 161 174
258 253 255 261 262 266 264 256 259 258 260 257 249 190 220 233 227 202 168 195 148 159 183 190 174 163 149 144 143 178 185 180 158 156 169 160 165 159 162 158 155 157 158 166 158 171 158 164 167
272 275 274 264 251 258 259 259 251 258 253 245 239 222 218 223 208 206 177 193 160 165 164 180 173 177 159 140 144 159 151 155 154 163 165 166 166 159 169 157 165 168 164 169 169 154 161 161 164
257 255 263 253 253 250 233 256 259 260 239 222 234 238 193 219 200 191 187 183 156 160 170 179 193 182 178 160 157 142 154 155 158 162 166 165 160 166 165 160 174 174 169 176 164 159 168 171 168
256 256 255 253 243 248 223 238 244 238 179 215 221 214 199 206 197 196 181 178 181 163 170 175 180 189 195 182 173 169 161 155 157 163 163 160 162 171 165 174 184 193 174 176 163 169 176 169 169
236 243 248 255 270 235 229 234 259 262 210 200 247 200 191 192 204 195 187 176 180 162 164 171 175 188 187 193 173 170 167 163 166 162 163 162 172 169 170 195 193 168 170 167 167 176 176 173 173
258 266 275 273 239 244 216 226 248 238 244 210 200 217 197 187 194 178 184 167 169 154 159 164 167 178 176 164 153 158 166 173 167 173 174 176 171 181 185 192 191 166 168 165 166 173 171 179 190
246 251 257 273 277 246 269 258 254 252 254 250 246 203 208 192 181 167 169 171 174 166 163 163 171 172 181 170 165 161 166 173 176 172 180 180 183 193 180 186 187 180 177 177 179 180 184 183 193
254 241 251 258 267 271 245 253 260 262 268 257 225 254 231 189 179 167 166 178 176 172 177 172 178 177 180 180 171 165 164 164 168 179 180 189 187 193 193 196 190 183 189 185 182 179 190 187 189
269 252 257 260 260 262 257 256 251 252 233 226 225 223 241 224 181 169 167 177 178 187 175 183 180 180 183 184 174 171 171 168 177 182 191 194 194 188 192 188 184 185 191 181 181 189 195 191 184
265 266 281 268 257 261 258 266 264 256 268 272 198 203 205 206 196 173 168 177 181 182 173 185 173 188 182 191 183 177 178 182 184 184 186 199 200 193 192 195 190 193 192 188 194 194 198 201 199
280 250 263 266 264 250 236 249 246 251 255 240 200 202 206 183 186 171 165 171 182 175 176 179 179 184 187 186 184 186 182 178 183 185 188 191 200 201 202 201 195 191 197 197 196 201 203 204 216
275 223 250 236 233 244 234 244 243 242 260 167 139 217 201 179 173 169 163 170 181 175 175 182 176 191 188 190 193 194 191 189 189 192 195 198 199 202 210 204 201 207 208 205 203 207 211 212 218
289 186 216 209 243 231 227 237 240 210 251 138 247 134 298 137 144 172 175 172 184 178 176 184 181 192 187 191 196 196 196 201 196 192 199 204 206 209 209 209 213 211 212 215 216 218 219 220 233
263 257 214 269 296 283 257 221 170 198 186 192 169 174 230 137 175 186 192 174 181 182 181 185 191 192 193 193 197 205 204 200 194 196 199 205 210 214 214 213 214 218 221 222 221 222 224 230 240
226 262 234 209 242 236 246 269 172 158 171 188 202 177 173 190 121 150 193 174 180 182 183 183 195 199 196 189 198 203 208 207 205 199 203 203 207 209 214 214 215 216 218 221 223 224 227 231 233
218 231 213 224 252 288 244 213 12 273 114 92 22 55 3 74 84 102 340 171 178 179 183 185 192 204 203 193 193 200 205 207 209 214 210 206 206 204 208 212 214 217 217 219 220 221 221 225 231
231 220 211 220 228 252 264 311 321 142 108 61 36 40 17 16 19 55 131 202 174 180 186 190 196 206 207 202 197 200 203 204 207 210 209 208 208 209 209 209 210 214 217 217 216 219 221 225 230